Time,TemperatureF,DewpointF,PressureIn,WindDirection,WindDirectionDegrees,WindSpeedMPH,WindSpeedGustMPH,Humidity,HourlyPrecipIn,Conditions,Clouds,dailyrainin,SoftwareType,DateUTC
2013-01-12 00:00:00,36.1,33.2,30.09,West,270,0.0,0.0,89,0.00,,,0.00,VWS V14.00,2013-01-12 05:00:00,
2013-01-12 00:15:00,36.0,33.0,30.09,West,270,0.0,0.0,89,0.00,,,0.00,VWS V14.00,2013-01-12 05:15:00,
2013-01-12 00:30:00,36.0,33.0,30.09,West,270,0.0,89.5,89,0.00,,,0.00,VWS V14.00,2013-01-12 05:30:00,
2013-01-12 00:45:00,36.0,33.0,30.09,West,270,0.0,0.0,89,0.00,,,0.00,VWS V14.00,2013-01-12 05:45:00,
2013-01-12 01:00:00,36.0,33.0,30.09,West,270,0.0,0.0,89,0.00,,,0.00,VWS V14.00,2013-01-12 06:00:00,
2013-01-12 01:15:00,36.0,33.0,30.12,West,270,0.0,0.0,89,0.00,,,0.00,VWS V14.00,2013-01-12 06:15:00,
2013-01-12 01:30:00,36.0,33.0,30.09,West,270,0.0,0.0,89,0.00,,,0.00,VWS V14.00,2013-01-12 06:30:00,
2013-01-12 01:45:00,36.0,33.0,30.12,West,270,0.0,0.0,89,0.00,,,0.00,VWS V14.00,2013-01-12 06:45:00,
2013-01-12 02:00:00,36.0,33.0,30.12,West,270,0.0,0.0,89,0.00,,,0.00,VWS V14.00,2013-01-12 07:00:00,
2013-01-12 02:15:00,36.0,33.0,30.12,West,270,0.0,44.7,89,0.00,,,0.00,VWS V14.00,2013-01-12 07:15:00,
2013-01-12 02:30:00,36.0,33.0,30.12,West,270,0.0,0.0,89,0.00,,,0.00,VWS V14.00,2013-01-12 07:30:00,
2013-01-12 02:45:00,36.0,33.0,30.12,West,270,0.0,0.0,89,0.00,,,0.00,VWS V14.00,2013-01-12 07:45:00,
2013-01-12 03:00:00,36.0,33.0,30.12,West,270,0.0,0.0,89,0.00,,,0.00,VWS V14.00,2013-01-12 08:00:00,
2013-01-12 03:15:00,36.0,33.0,30.12,West,270,0.0,0.0,89,0.00,,,0.00,VWS V14.00,2013-01-12 08:15:00,
2013-01-12 03:30:00,36.0,33.0,30.12,West,270,0.0,0.0,89,0.00,,,0.00,VWS V14.00,2013-01-12 08:30:00,
2013-01-12 03:45:00,36.0,33.0,30.12,West,270,0.0,0.0,89,0.00,,,0.00,VWS V14.00,2013-01-12 08:45:00,
2013-01-12 04:00:00,36.0,33.0,30.12,West,270,0.0,0.0,89,0.00,,,0.00,VWS V14.00,2013-01-12 09:00:00,
2013-01-12 04:15:00,36.0,33.0,30.12,West,270,0.0,0.0,89,0.00,,,0.00,VWS V14.00,2013-01-12 09:15:00,
2013-01-12 04:30:00,36.0,33.0,30.12,West,270,0.0,0.0,89,0.00,,,0.00,VWS V14.00,2013-01-12 09:30:00,
2013-01-12 05:01:00,36.0,33.0,30.12,West,270,0.0,0.0,89,0.00,,,0.00,VWS V14.00,2013-01-12 10:01:00,
2013-01-12 05:15:00,36.0,33.0,30.12,West,270,0.0,0.0,89,0.00,,,0.00,VWS V14.00,2013-01-12 10:15:00,
2013-01-12 05:31:00,36.0,33.0,30.12,West,270,0.0,0.0,89,0.00,,,0.00,VWS V14.00,2013-01-12 10:31:00,
2013-01-12 05:45:00,36.0,33.0,30.12,West,270,0.0,0.0,89,0.00,,,0.00,VWS V14.00,2013-01-12 10:45:00,
2013-01-12 06:00:00,36.0,33.0,30.12,West,270,0.0,0.0,89,0.00,,,0.00,VWS V14.00,2013-01-12 11:00:00,
2013-01-12 06:15:00,36.0,33.0,30.12,West,270,0.0,0.0,89,0.00,,,0.00,VWS V14.00,2013-01-12 11:15:00,
2013-01-12 06:30:00,36.0,33.0,30.12,West,270,0.0,0.0,89,0.00,,,0.00,VWS V14.00,2013-01-12 11:30:00,
2013-01-12 06:45:00,36.0,33.0,30.12,West,270,0.0,0.0,89,0.00,,,0.00,VWS V14.00,2013-01-12 11:45:00,
2013-01-12 07:00:00,36.0,33.0,30.12,West,270,0.0,0.0,89,0.00,,,0.00,VWS V14.00,2013-01-12 12:00:00,
2013-01-12 07:15:00,36.0,33.0,30.15,West,270,0.0,0.0,89,0.00,,,0.00,VWS V14.00,2013-01-12 12:15:00,
2013-01-12 07:30:00,36.0,33.0,30.15,West,270,0.0,0.0,89,0.00,,,0.00,VWS V14.00,2013-01-12 12:30:00,
2013-01-12 07:45:00,36.0,33.0,30.15,West,270,0.0,0.0,89,0.00,,,0.00,VWS V14.00,2013-01-12 12:45:00,
2013-01-12 08:00:00,36.0,33.0,30.15,West,270,0.0,0.0,89,0.00,,,0.00,VWS V14.00,2013-01-12 13:00:00,
2013-01-12 08:15:00,36.0,33.0,30.15,West,270,0.0,0.0,89,0.00,,,0.00,VWS V14.00,2013-01-12 13:15:00,
2013-01-12 08:30:00,36.0,33.0,30.15,West,270,0.0,0.9,89,0.00,,,0.00,VWS V14.00,2013-01-12 13:30:00,
2013-01-12 08:45:00,36.0,33.0,30.15,West,270,0.0,0.0,89,0.00,,,0.00,VWS V14.00,2013-01-12 13:45:00,
2013-01-12 09:00:00,36.0,33.0,30.15,West,270,0.0,0.0,89,0.00,,,0.00,VWS V14.00,2013-01-12 14:00:00,
2013-01-12 09:15:00,36.0,33.0,30.15,West,270,0.0,0.0,89,0.00,,,0.00,VWS V14.00,2013-01-12 14:15:00,
2013-01-12 09:30:00,36.0,33.0,30.15,West,270,0.0,0.0,89,0.00,,,0.00,VWS V14.00,2013-01-12 14:30:00,
2013-01-12 09:45:00,36.0,33.0,30.15,West,270,0.0,0.4,89,0.00,,,0.00,VWS V14.00,2013-01-12 14:45:00,
2013-01-12 10:00:00,36.0,33.0,30.15,West,270,0.0,0.0,89,0.00,,,0.00,VWS V14.00,2013-01-12 15:00:00,
2013-01-12 10:15:00,36.0,33.0,30.18,West,270,0.0,0.0,89,0.00,,,0.00,VWS V14.00,2013-01-12 15:15:00,
2013-01-12 10:30:00,37.8,35.4,30.15,West,270,0.0,0.0,91,0.00,,,0.00,VWS V14.00,2013-01-12 15:30:00,
2013-01-12 10:45:00,38.3,35.9,30.18,West,270,0.0,0.0,91,0.00,,,0.00,VWS V14.00,2013-01-12 15:45:00,
2013-01-12 11:00:00,38.8,36.4,30.15,West,270,0.0,0.0,91,0.00,,,0.00,VWS V14.00,2013-01-12 16:00:00,
2013-01-12 11:15:00,39.0,36.6,30.15,West,270,0.0,0.4,91,0.00,,,0.00,VWS V14.00,2013-01-12 16:15:00,
2013-01-12 11:30:00,39.9,37.5,30.15,West,270,0.0,0.0,91,0.00,,,0.00,VWS V14.00,2013-01-12 16:30:00,
2013-01-12 11:45:00,41.5,39.1,30.15,West,270,0.0,0.0,91,0.00,,,0.00,VWS V14.00,2013-01-12 16:45:00,
2013-01-12 12:00:00,42.6,40.2,30.15,West,270,0.0,0.0,91,0.00,,,0.00,VWS V14.00,2013-01-12 17:00:00,
2013-01-12 12:15:00,44.1,41.6,30.15,West,270,0.0,0.0,91,0.00,,,0.00,VWS V14.00,2013-01-12 17:15:00,
2013-01-12 12:30:00,44.8,42.0,30.12,West,270,0.0,0.0,90,0.00,,,0.00,VWS V14.00,2013-01-12 17:30:00,
2013-01-12 12:45:00,44.1,41.3,30.12,West,270,0.0,0.0,90,0.00,,,0.00,VWS V14.00,2013-01-12 17:45:00,
2013-01-12 13:00:00,47.5,44.4,30.12,West,272,0.0,0.0,89,0.00,,,0.00,VWS V14.00,2013-01-12 18:00:00,
2013-01-12 13:15:00,48.0,43.7,30.12,West,274,0.0,3.6,85,0.00,,,0.00,VWS V14.00,2013-01-12 18:15:00,
2013-01-12 13:30:00,46.6,34.7,30.12,West,274,0.0,4.5,63,0.00,,,0.00,VWS V14.00,2013-01-12 18:30:00,
2013-01-12 13:45:00,47.7,34.0,30.12,West,274,0.0,4.7,59,0.00,,,0.00,VWS V14.00,2013-01-12 18:45:00,
2013-01-12 14:00:00,48.2,32.3,30.12,West,274,0.0,0.0,54,0.00,,,0.00,VWS V14.00,2013-01-12 19:00:00,
2013-01-12 14:15:00,50.0,34.0,30.12,West,274,0.0,0.0,54,0.00,,,0.00,VWS V14.00,2013-01-12 19:15:00,
2013-01-12 14:30:00,49.3,31.5,30.12,West,274,0.0,3.6,50,0.00,,,0.00,VWS V14.00,2013-01-12 19:30:00,
2013-01-12 14:45:00,49.8,29.9,30.12,West,274,0.0,0.0,46,0.00,,,0.00,VWS V14.00,2013-01-12 19:45:00,
2013-01-12 15:00:00,49.8,28.8,30.09,West,274,0.0,0.0,44,0.00,,,0.00,VWS V14.00,2013-01-12 20:00:00,
2013-01-12 15:15:00,48.6,29.3,30.12,West,274,0.0,0.0,47,0.00,,,0.00,VWS V14.00,2013-01-12 20:15:00,
2013-01-12 15:30:00,47.3,30.6,30.12,West,274,0.0,0.0,52,0.00,,,0.00,VWS V14.00,2013-01-12 20:30:00,
2013-01-12 15:45:00,47.3,30.6,30.12,West,274,0.0,0.0,52,0.00,,,0.00,VWS V14.00,2013-01-12 20:45:00,
2013-01-12 16:00:00,47.3,31.5,30.15,West,274,0.0,0.0,54,0.00,,,0.00,VWS V14.00,2013-01-12 21:00:00,
2013-01-12 16:15:00,46.9,32.5,30.12,West,274,0.0,0.0,57,0.00,,,0.00,VWS V14.00,2013-01-12 21:15:00,
2013-01-12 16:30:00,45.5,30.3,30.12,West,274,0.0,0.0,55,0.00,,,0.00,VWS V14.00,2013-01-12 21:30:00,
2013-01-12 16:45:00,43.7,30.7,30.12,West,274,0.0,0.0,60,0.00,,,0.00,VWS V14.00,2013-01-12 21:45:00,
2013-01-12 17:00:00,42.1,29.6,30.12,West,274,0.0,0.0,61,0.00,,,0.00,VWS V14.00,2013-01-12 22:00:00,
2013-01-12 17:15:00,40.6,30.2,30.12,West,274,0.0,0.0,66,0.00,,,0.00,VWS V14.00,2013-01-12 22:15:00,
2013-01-12 17:30:00,40.3,30.2,30.12,West,274,0.0,0.0,67,0.00,,,0.00,VWS V14.00,2013-01-12 22:30:00,
2013-01-12 17:45:00,39.6,31.3,30.15,West,274,0.0,0.0,72,0.00,,,0.00,VWS V14.00,2013-01-12 22:45:00,
2013-01-12 18:00:00,38.7,30.8,30.15,West,274,0.0,0.0,73,0.00,,,0.00,VWS V14.00,2013-01-12 23:00:00,
2013-01-12 18:15:00,37.8,30.6,30.15,West,274,0.0,0.0,75,0.00,,,0.00,VWS V14.00,2013-01-12 23:15:00,
2013-01-12 18:30:00,37.6,30.7,30.15,West,274,0.0,0.0,76,0.00,,,0.00,VWS V14.00,2013-01-12 23:30:00,
2013-01-12 18:45:00,36.7,30.5,30.15,West,274,0.0,0.0,78,0.00,,,0.00,VWS V14.00,2013-01-12 23:45:00,
2013-01-12 19:00:00,37.4,31.5,30.15,West,274,0.0,0.0,79,0.00,,,0.00,VWS V14.00,2013-01-13 00:00:00,
2013-01-12 19:15:00,37.6,32.6,30.15,West,274,0.0,0.0,82,0.00,,,0.00,VWS V14.00,2013-01-13 00:15:00,
2013-01-12 19:30:00,38.1,33.4,30.12,West,274,0.0,0.0,83,0.00,,,0.00,VWS V14.00,2013-01-13 00:30:00,
2013-01-12 19:45:00,38.3,33.6,30.12,West,274,0.0,0.0,83,0.00,,,0.00,VWS V14.00,2013-01-13 00:45:00,
2013-01-12 20:00:00,38.3,33.6,30.12,West,274,0.0,0.0,83,0.00,,,0.00,VWS V14.00,2013-01-13 01:00:00,
2013-01-12 20:15:00,38.3,33.6,30.12,West,274,0.0,4.0,83,0.00,,,0.00,VWS V14.00,2013-01-13 01:15:00,
2013-01-12 20:30:00,38.3,33.6,30.12,West,274,0.0,0.0,83,0.00,,,0.00,VWS V14.00,2013-01-13 01:30:00,
2013-01-12 20:45:00,38.3,33.6,30.12,West,274,0.0,0.0,83,0.00,,,0.00,VWS V14.00,2013-01-13 01:45:00,
2013-01-12 21:00:00,38.3,33.6,30.12,West,274,0.0,0.0,83,0.00,,,0.00,VWS V14.00,2013-01-13 02:00:00,
2013-01-12 21:31:00,38.3,33.6,30.12,West,274,0.0,4.0,83,0.00,,,0.00,VWS V14.00,2013-01-13 02:31:00,
2013-01-12 21:46:00,38.3,33.6,30.12,West,274,0.0,0.0,83,0.00,,,0.00,VWS V14.00,2013-01-13 02:46:00,
2013-01-12 22:01:00,38.3,33.6,30.12,West,274,0.0,0.0,83,0.00,,,0.00,VWS V14.00,2013-01-13 03:01:00,
2013-01-12 22:16:00,38.3,33.6,30.12,West,274,0.0,0.0,83,0.00,,,0.00,VWS V14.00,2013-01-13 03:16:00,
2013-01-12 22:31:00,38.3,33.6,30.12,West,274,0.0,0.0,83,0.00,,,0.00,VWS V14.00,2013-01-13 03:31:00,
2013-01-12 22:45:00,38.3,33.6,30.12,West,274,0.0,0.0,83,0.00,,,0.00,VWS V14.00,2013-01-13 03:45:00,
2013-01-12 23:00:00,38.3,33.6,30.12,West,274,0.0,0.0,83,0.00,,,0.00,VWS V14.00,2013-01-13 04:00:00,
2013-01-12 23:15:00,38.3,33.6,30.12,West,274,0.0,0.0,83,0.00,,,0.00,VWS V14.00,2013-01-13 04:15:00,
2013-01-12 23:30:00,38.3,33.6,30.12,West,274,0.0,0.0,83,0.00,,,0.00,VWS V14.00,2013-01-13 04:30:00,
2013-01-12 23:45:00,38.3,33.6,30.12,West,274,0.0,0.0,83,0.00,,,0.00,VWS V14.00,2013-01-13 04:45:00,